Torna al catalogo

COSMOS 1375 DEB

AttivoLEO
NORAD 26498·DEBRIS·🇷🇺 Russia

Lanciato Jun 6, 1982 da Plesetsk Cosmodrome

Loading…

Prossimi Passaggi (prossime 24 ore)

TLE

ObsoletoSource: Space-Track

Epoca: Aug 24, 2026, 04:24 UTC

1 26498U 82055BP  26236.18353810  .00001185  00000-0  78434-3 0  9991
2 26498  65.8130  77.6170 0016205 116.2106 244.0640 14.05262833671865

Traccia COSMOS 1375 DEB in tempo reale con AllMySat

Download on the App Store